Regional Weather Roundup
Issued by NWS

Home | Current Version | Previous Version | Graphics & Text | Print | Product List | Glossary On
Versions: 1 2 3 4 5 6 7 8 9 10 11 12 13 14 15 16 17 18 19 20 21 22 23 24 25 26 27 28 29 30 31 32 33 34 35 36 37 38 39 40 41 42 43 44 45 46 47 48
000
ASUS45 KBOI 252110
RWRID
WEATHER ROUNDUP FOR IDAHO
NATIONAL WEATHER SERVICE BOISE ID
200 PM MST TUE NOV 25 2014

NOTE: "FAIR" INDICATES FEW OR NO CLOUDS BELOW 12000 FEET
WITH NO SIGNIFICANT WEATHER AND/OR OBSTRUCTIONS TO VISIBILITY

IDZ012-014-252200-
SOUTHWEST IDAHO


CITY           SKY/WX    TMP DP  RH WIND       PRES   REMARKS
BOISE          CLOUDY    52  43  71 N7        30.24S
CALDWELL       NOT AVBL
MOUNTAIN HOME  CLOUDY    54  46  74 NW5       30.22F
$$

IDZ016-017-252200-
SOUTHCENTRAL IDAHO


CITY           SKY/WX    TMP DP  RH WIND       PRES   REMARKS
BURLEY         CLOUDY    52  37  56 W20G31    30.18S
JEROME         CLOUDY    50  38  63 SW20      30.20F
TWIN FALLS     CLOUDY    55  37  50 SW28G36   30.20F
$$

IDZ019>023-252200-
SOUTHEAST IDAHO


CITY           SKY/WX    TMP DP  RH WIND       PRES   REMARKS
IDAHO FALLS    PTSUNNY   42  34  73 S20       30.08S
POCATELLO      PTSUNNY   47  38  71 SW29G37   30.15F
REXBURG        CLOUDY    39  33  79 SW16G23   30.06F WCI  30
$$

IDZ006-010-011-018-031-032-252200-
CENTRAL IDAHO MOUNTAINS


CITY           SKY/WX    TMP DP  RH WIND       PRES   REMARKS
MCCALL         LGT RAIN  34  33  96 CALM      30.17F FOG
HAILEY         PTSUNNY   46  36  66 SW15G23   30.11F
STANLEY          N/A     40  34  79 E6        30.17S
SALMON         CLOUDY    36  32  87 CALM      30.09R
CHALLIS        LGT RAIN  37  34  89 CALM      30.07F
$$

IDZ002-004-006-007-026-252200-
NORTHERN IDAHO


CITY           SKY/WX    TMP DP  RH WIND       PRES   REMARKS
LEWISTON       LGT RAIN  47  45  93 W3        30.17R
LOWELL           N/A     36  34  92 CALM      30.19R
COEUR D`ALENE  CLOUDY    39  36  87 S6        30.15F WCI  35
MULLAN PASS    SNOW      30  26  85 N3        30.07S VSB 1/4
$$


USA.gov is the U.S. government's official web portal to all federal, state and local government web resources and services.